Vorticity
3 2 3 3 4 6 7 6 4 3 4 6 5 7 13 8 4 5 12 9 6 10 0 -3 8 11 7 11 10 11 14 13 11 -9 1 2 5 1 5 -0 7 6 6 8 13
3 3 3 3 2 2 1 2 3 5 4 4 4 7 6 12 9 4 4 11 10 9 7 7 3 6 6 8 13 8 7 -8 -5 22 19 -12 3 4 1 2 9 5 10 7 10
8 8 8 9 10 9 8 7 4 2 2 3 5 2 6 5 9 10 6 5 12 7 5 2 6 4 10 11 8 5 -8 8 32 3 34 25 11 5 4 7 5 8 8 5 2
10 10 10 11 11 10 9 8 9 11 8 3 2 4 5 3 5 8 10 6 4 13 9 6 -2 3 2 9 4 7 7 -1 6 11 6 -2 14 9 7 11 8 12 6 6 4
12 11 10 9 8 10 11 11 12 11 10 10 10 4 4 4 2 4 6 12 6 6 11 10 4 6 2 7 5 4 8 -3 5 22 2 17 5 0 5 8 12 10 9 9 15
7 8 7 6 7 6 6 5 7 10 11 11 10 12 11 3 3 4 4 4 12 7 6 13 9 4 4 6 8 6 12 7 3 -1 3 14 5 8 7 7 10 8 10 11 12
3 3 4 4 4 3 4 5 5 1 5 6 8 9 14 12 6 4 4 4 3 10 6 3 11 7 3 3 7 2 5 15 -2 2 2 8 5 2 5 4 6 8 9 14 8
5 8 8 4 11 12 6 4 7 8 6 3 3 6 5 12 11 9 4 5 4 6 12 6 4 12 8 5 6 2 -2 4 2 0 6 -2 -20 -0 6 2 4 6 8 13 9
5 7 7 11 -0 2 13 15 10 8 12 6 3 6 5 5 7 10 13 6 4 3 6 11 7 4 12 7 2 -2 -4 5 1 2 19 6 15 14 -2 -0 7 6 5 7 12
8 6 5 1 7 1 1 4 10 16 11 9 7 9 5 7 5 6 9 13 8 4 2 4 10 8 6 12 8 5 4 4 5 -3 11 -19 10 6 6 5 4 5 2 3 10
1 5 6 4 7 8 -1 -0 6 10 12 10 19 5 14 -2 5 5 7 6 9 11 3 3 4 9 13 11 15 15 6 5 6 3 8 1 15 14 0 5 5 0 6 3 4
4 5 4 4 0 5 14 -3 5 4 12 2 0 9 22 9 7 6 4 6 7 9 11 5 2 6 11 5 4 11 11 10 5 2 6 -1 16 4 2 7 1 -1 -3 1 4
9 10 8 7 6 3 9 4 6 10 9 6 7 10 19 11 14 17 8 6 7 6 8 11 4 4 4 11 5 5 9 12 12 6 0 3 9 -19 -10 7 2 1 -10 6 6
9 9 8 10 15 10 5 10 15 14 10 12 21 25 25 24 11 20 17 12 14 8 5 5 12 4 3 4 10 6 4 12 8 11 12 -2 5 5 3 12 4 4 15 -5 7
14 11 8 12 9 11 13 28 22 16 21 28 32 28 33 30 33 29 25 28 19 18 12 3 6 12 3 3 7 12 9 6 11 6 7 2 0 8 9 16 11 11 15 7 2
14 13 14 6 9 22 22 18 20 24 12 8 12 9 15 7 2 8 15 27 22 18 15 8 5 9 7 2 2 7 8 6 8 10 5 10 2 10 10 19 24 4 5 -1 -2
15 15 6 19 25 20 19 14 11 3 11 14 8 5 8 11 12 9 11 11 18 24 30 15 6 5 7 8 3 4 5 6 9 13 5 8 1 2 3 19 -9 0 10 -1 10
13 9 11 15 19 13 17 7 4 8 3 13 8 8 8 9 11 9 8 5 -0 2 21 35 14 4 6 7 6 1 6 6 4 7 6 8 -1 -5 9 5 7 7 13 7 -1
12 7 15 18 11 16 12 2 2 1 13 17 9 10 14 12 9 12 8 4 5 6 -2 27 33 17 3 14 9 5 3 3 10 8 7 8 1 3 8 7 5 8 -2 4 4
5 14 16 15 16 17 6 0 5 14 20 19 16 15 12 11 7 7 5 8 6 5 9 7 34 32 7 2 14 9 8 6 6 9 5 5 8 -1 6 12 1 0 -3 4 10
3 15 18 17 10 5 2 12 18 12 12 14 13 10 14 13 12 14 12 15 18 16 10 3 6 -7 22 10 6 5 7 3 0 13 6 2 6 6 10 1 14 11 2 24 1
23 16 4 1 3 12 16 12 11 12 14 13 13 16 14 12 13 14 12 13 12 24 30 45 40 22 19 17 5 18 6 7 3 4 9 8 9 12 7 5 12 9 7 5 8
12 2 4 13 14 19 16 6 7 9 14 16 19 16 15 7 16 20 18 7 15 40 35 47 36 31 2 29 7 12 9 11 2 4 8 9 8 -5 19 15 12 7 6 8 6
11 14 11 17 13 17 9 14 9 16 12 18 18 16 13 4 9 3 10 14 10 34 28 38 35 20 19 26 9 13 15 4 6 6 3 4 15 16 13 14 16 3 6 0 12
12 10 8 9 13 11 11 15 15 15 19 20 17 16 8 11 12 8 18 17 16 33 9 31 40 11 30 23 16 13 13 10 3 3 5 10 13 17 7 25 9 13 10 8 2
14 17 16 15 12 13 12 14 14 14 19 25 19 20 10 4 17 10 13 27 28 4 16 11 27 18 41 33 11 7 19 9 7 4 0 12 14 3 10 15 24 16 3 1 3
6 15 14 18 14 13 13 16 17 14 17 23 16 14 5 18 21 7 20 17 16 8 27 62 -15 3 41 35 13 3 24 5 10 3 7 9 5 11 11 16 14 23 6 3 -8
Height
5860 5859 5859 5858 5858 5857 5856 5856 5855 5854 5854 5854 5853 5853 5852 5852 5851 5853 5854 5855 5855 5857 5859 5861 5862 5864 5865 5867 5869 5870 5873 5874 5875 5877 5878 5878 5880 5881 5882 5884 5884 5884 5885 5886 5887
5856 5855 5854 5854 5854 5853 5853 5852 5851 5850 5850 5851 5851 5851 5849 5849 5848 5850 5851 5852 5853 5854 5856 5858 5860 5862 5863 5866 5868 5869 5871 5873 5873 5874 5877 5877 5878 5881 5882 5884 5884 5883 5884 5885 5888
5852 5851 5850 5849 5848 5847 5847 5847 5847 5847 5846 5846 5847 5848 5847 5846 5846 5847 5848 5849 5849 5851 5853 5855 5858 5860 5861 5864 5866 5868 5869 5870 5868 5873 5873 5876 5879 5879 5880 5882 5883 5883 5883 5885 5886
5847 5846 5845 5844 5843 5842 5841 5841 5841 5842 5841 5842 5842 5843 5843 5842 5843 5845 5844 5845 5845 5848 5850 5854 5856 5859 5860 5864 5864 5866 5868 5869 5868 5871 5873 5874 5876 5877 5878 5880 5881 5883 5883 5885 5885
5843 5842 5841 5839 5838 5837 5836 5835 5835 5835 5836 5836 5837 5838 5838 5837 5840 5839 5840 5841 5841 5843 5845 5849 5852 5855 5857 5860 5862 5863 5866 5868 5869 5871 5874 5874 5875 5877 5878 5879 5880 5881 5882 5884 5887
5839 5838 5836 5835 5833 5832 5831 5830 5829 5830 5830 5831 5830 5831 5831 5832 5832 5836 5835 5836 5837 5839 5841 5843 5845 5847 5850 5856 5858 5858 5862 5866 5869 5871 5874 5875 5875 5876 5877 5878 5880 5881 5881 5884 5888
5834 5833 5831 5829 5828 5827 5825 5825 5823 5823 5823 5825 5825 5824 5824 5826 5826 5829 5830 5832 5832 5833 5835 5837 5838 5843 5847 5851 5851 5853 5859 5863 5867 5871 5873 5877 5877 5877 5878 5879 5882 5882 5882 5885 5888
5829 5827 5825 5823 5821 5820 5818 5817 5816 5815 5815 5816 5818 5818 5818 5819 5818 5820 5823 5826 5827 5827 5830 5832 5835 5837 5841 5847 5848 5850 5853 5859 5864 5868 5873 5876 5877 5878 5879 5881 5880 5881 5883 5886 5886
5824 5821 5819 5817 5815 5813 5811 5809 5807 5805 5807 5807 5808 5810 5811 5811 5811 5811 5814 5817 5818 5820 5821 5825 5830 5833 5835 5841 5843 5843 5849 5856 5858 5865 5869 5874 5877 5877 5877 5879 5880 5881 5883 5885 5886
5817 5813 5811 5809 5807 5804 5802 5800 5798 5796 5798 5799 5799 5802 5801 5802 5801 5804 5808 5808 5810 5810 5812 5818 5823 5829 5832 5835 5838 5842 5850 5854 5856 5861 5866 5872 5874 5875 5874 5877 5879 5880 5882 5883 5885
5810 5805 5800 5798 5796 5793 5790 5788 5786 5784 5788 5788 5790 5789 5788 5790 5791 5793 5797 5797 5800 5803 5806 5809 5814 5825 5836 5833 5838 5841 5845 5850 5854 5858 5862 5866 5870 5872 5872 5874 5877 5878 5881 5883 5884
5799 5794 5790 5786 5782 5780 5779 5774 5770 5770 5770 5774 5776 5778 5776 5775 5778 5779 5785 5787 5790 5793 5795 5798 5806 5823 5820 5822 5828 5832 5838 5843 5849 5850 5855 5859 5864 5866 5869 5871 5873 5875 5878 5881 5882
5786 5782 5779 5774 5769 5766 5764 5763 5756 5755 5754 5755 5759 5761 5761 5763 5761 5763 5768 5773 5776 5779 5784 5788 5803 5806 5809 5814 5819 5824 5831 5840 5846 5844 5847 5851 5855 5860 5865 5867 5868 5872 5873 5878 5881
5774 5770 5766 5761 5758 5752 5750 5748 5742 5739 5739 5739 5741 5744 5744 5742 5746 5748 5751 5757 5760 5766 5770 5774 5790 5790 5796 5803 5810 5816 5826 5832 5837 5837 5838 5844 5847 5852 5860 5865 5866 5869 5872 5875 5879
5762 5758 5754 5749 5743 5740 5736 5733 5729 5726 5723 5724 5725 5728 5730 5729 5729 5731 5735 5739 5744 5750 5755 5764 5778 5778 5784 5801 5801 5814 5815 5820 5827 5828 5832 5831 5833 5846 5852 5855 5864 5868 5869 5872 5875
5750 5746 5741 5735 5732 5728 5724 5720 5719 5718 5715 5715 5715 5716 5718 5718 5718 5719 5721 5723 5728 5733 5738 5748 5760 5767 5773 5785 5789 5802 5803 5806 5810 5816 5809 5822 5823 5833 5844 5854 5862 5865 5865 5868 5871
5738 5733 5729 5725 5722 5717 5714 5712 5711 5709 5708 5708 5706 5707 5706 5708 5708 5709 5710 5713 5714 5718 5723 5730 5742 5754 5760 5769 5776 5786 5788 5790 5794 5792 5795 5817 5813 5822 5840 5850 5858 5863 5865 5866 5868
5725 5722 5718 5714 5711 5708 5706 5704 5703 5701 5698 5696 5696 5693 5693 5694 5695 5696 5696 5698 5702 5704 5709 5715 5725 5740 5744 5755 5768 5774 5778 5778 5780 5785 5796 5807 5795 5810 5835 5843 5851 5858 5862 5860 5862
5716 5712 5708 5704 5701 5699 5697 5696 5693 5690 5688 5684 5682 5680 5680 5680 5681 5683 5681 5683 5688 5692 5694 5697 5705 5721 5729 5741 5748 5760 5760 5775 5779 5786 5792 5791 5794 5808 5826 5834 5843 5852 5856 5856 5858
5708 5703 5698 5694 5692 5689 5688 5685 5681 5677 5674 5671 5669 5667 5666 5666 5667 5669 5667 5666 5670 5676 5678 5680 5686 5705 5715 5722 5732 5743 5758 5760 5764 5772 5779 5779 5789 5802 5818 5828 5836 5843 5852 5856 5858
5698 5694 5689 5686 5684 5682 5678 5673 5668 5665 5663 5660 5656 5654 5653 5651 5651 5651 5653 5648 5649 5656 5659 5665 5666 5689 5695 5701 5723 5733 5737 5748 5759 5765 5771 5773 5785 5803 5813 5821 5831 5840 5847 5853 5855
5690 5686 5681 5678 5676 5672 5666 5660 5657 5653 5650 5646 5643 5640 5637 5637 5636 5637 5638 5633 5634 5633 5634 5640 5643 5655 5678 5697 5712 5718 5728 5737 5741 5752 5759 5767 5781 5797 5806 5816 5823 5830 5840 5848 5852
5684 5680 5675 5671 5666 5662 5657 5652 5646 5642 5638 5633 5629 5626 5624 5624 5623 5622 5622 5620 5617 5615 5615 5619 5625 5637 5667 5684 5695 5701 5715 5727 5738 5746 5751 5762 5775 5792 5799 5807 5815 5821 5831 5839 5846
5680 5674 5667 5662 5657 5654 5651 5644 5637 5630 5625 5620 5616 5613 5612 5611 5610 5609 5607 5603 5603 5600 5602 5603 5610 5622 5647 5669 5676 5690 5704 5717 5723 5730 5745 5752 5773 5785 5788 5796 5806 5815 5821 5829 5835
5674 5669 5660 5654 5648 5642 5638 5633 5626 5620 5614 5609 5604 5601 5600 5600 5597 5594 5593 5590 5588 5588 5589 5591 5597 5609 5629 5648 5663 5679 5694 5704 5712 5726 5735 5751 5772 5778 5781 5788 5797 5805 5814 5820 5826
5669 5663 5656 5649 5641 5635 5629 5624 5617 5609 5605 5599 5594 5591 5588 5587 5585 5584 5580 5579 5578 5579 5579 5581 5595 5603 5620 5640 5659 5674 5686 5695 5707 5721 5730 5747 5763 5766 5772 5777 5786 5795 5801 5809 5815
5669 5661 5654 5646 5639 5633 5625 5617 5610 5601 5597 5590 5585 5583 5581 5578 5575 5574 5571 5570 5570 5571 5571 5576 5589 5600 5617 5636 5652 5663 5675 5688 5700 5713 5726 5743 5758 5759 5765 5771 5777 5786 5796 5802 5810